{"data":{"norad_id":50815,"epoch":"2026-05-24T19:51:17.951040Z","epoch_age_seconds":86392,"freshness":"FRESH","line1":"1 50815U 22001N   26144.82729110 -.00000658  00000+0 -23259-4 0  9996","line2":"2 50815  53.2121 187.3264 0001088  92.6476 267.4641 15.08833931241904","mean_motion":15.08833931,"eccentricity":0.0001088,"inclination_deg":53.2121,"raan_deg":187.3264,"arg_perigee_deg":92.6476,"mean_anomaly_deg":267.4641,"bstar":-2.3259e-5,"rev_number":24190,"period_min":95.437938557335,"perigee_km":539.00927212672,"apogee_km":540.51460693596,"semimajor_km":6917.8989395313,"source":"CELESTRAK","updated_at":"2026-05-25T13:38:16.876186Z"}}